CW7664 Weather Reports


Display with metric or nautical units.
time (UTC)temp
F
wind
direction
speed
MPH
gust
MPH
rain 1hr
in
rain 24hr
in
rain mn
in
humidity
%
barometer
mb
20260506091526 51 26 0.0 0.0 0.00 0.00 0.00 83 1016.3
20260506090024 51 26 0.0 0.0 0.00 0.00 0.00 82 1016.3
20260506084522 51 26 0.0 0.0 0.00 0.00 0.00 82 1016.3
20260506083020 52 26 0.0 0.0 0.00 0.00 0.00 82 1016.3
20260506081520 52 26 0.0 0.0 0.00 0.00 0.00 82 1016.3
20260506073017 52 21 0.0 0.0 0.00 0.00 0.00 81 1016.3
20260506071515 53 21 0.0 0.0 0.00 0.00 0.00 81 1016.1
20260506061514 54 19 0.0 0.0 0.00 0.00 0.00 80 1015.4
20260506044600 57 32 0.0 2.0 0.00 0.00 0.00 77 1014.8
20260506043058 58 32 0.0 1.0 0.00 0.00 0.00 76 1014.5
20260506041558 58 21 0.0 1.0 0.00 0.00 0.00 76 1014.5
20260506040101 59 355 0.0 3.0 0.00 0.00 0.00 75 1014.1
20260506034605 59 285 0.0 2.0 0.00 0.00 0.00 75 1013.9
20260506033051 59 355 0.0 1.0 0.00 0.00 0.00 73 1013.5
20260506031558 61 355 0.0 2.0 0.00 0.00 0.00 71 1013.3
20260506030047 62 316 0.0 1.0 0.00 0.00 0.00 69 1013.0
20260506024547 63 269 0.0 3.0 0.00 0.00 0.00 68 1012.8
20260506023048 64 249 0.0 3.0 0.00 0.00 0.00 67 1012.7
20260506021550 65 285 1.0 4.0 0.00 0.00 0.00 66 1012.5
20260506020046 65 213 1.0 4.0 0.00 0.00 0.00 66 1012.5
20260506014545 65 311 0.0 4.0 0.00 0.00 0.00 67 1012.4
20260506013047 65 327 2.0 4.0 0.00 0.00 0.00 67 1012.3
20260506011545 64 313 1.0 5.0 0.00 0.00 0.00 67 1012.5
20260506010045 64 331 1.0 5.0 0.00 0.00 0.00 67 1012.4
20260506004548 65 264 2.0 8.0 0.00 0.00 0.00 66 1012.4
20260506003044 66 288 2.0 7.0 0.00 0.00 0.00 65 1012.3
20260506001543 66 215 2.0 7.0 0.00 0.00 0.00 63 1012.1
20260506000042 67 199 3.0 8.0 0.00 0.00 0.00 61 1012.0
20260505234550 67 185 2.0 9.0 0.00 0.00 0.00 60 1012.0
20260505233043 67 175 2.0 8.0 0.00 0.00 0.00 62 1012.0
20260505231547 67 197 3.0 10.0 0.00 0.00 0.00 64 1011.9
20260505230040 68 190 3.0 10.0 0.00 0.00 0.00 57 1011.9
20260505224539 68 240 4.0 11.0 0.00 0.00 0.00 58 1012.0
20260505223049 70 205 5.0 9.0 0.00 0.00 0.00 53 1012.1
20260505221538 69 146 4.0 10.0 0.00 0.00 0.00 56 1012.2
20260505220041 68 121 5.0 10.0 0.00 0.00 0.00 57 1012.3
20260505214547 67 232 3.0 7.0 0.00 0.00 0.00 63 1012.6
20260505213036 67 223 2.0 10.0 0.00 0.00 0.00 60 1012.7
20260505211536 68 181 4.0 9.0 0.00 0.00 0.00 60 1012.8
20260505210034 69 235 2.0 7.0 0.00 0.00 0.00 54 1012.9
20260505204536 70 265 3.0 11.0 0.00 0.00 0.00 50 1012.8
20260505203033 69 195 3.0 11.0 0.00 0.00 0.00 51 1012.7
20260505201534 70 323 3.0 11.0 0.00 0.00 0.00 50 1012.8
20260505200040 70 240 3.0 12.0 0.00 0.00 0.00 50 1012.8
20260505194530 69 189 6.0 10.0 0.00 0.00 0.00 50 1012.9
20260505193030 70 224 4.0 11.0 0.00 0.00 0.00 49 1013.0
20260505191528 69 221 4.0 9.0 0.00 0.00 0.00 51 1013.0
20260505190037 70 101 2.0 4.0 0.00 0.00 0.00 50 1012.9
20260505184526 70 280 1.0 6.0 0.00 0.00 0.00 51 1012.9
20260505183024 69 156 2.0 5.0 0.00 0.00 0.00 53 1012.9
20260505181523 69 166 1.0 4.0 0.00 0.00 0.00 54 1012.9
20260505180021 69 192 2.0 5.0 0.00 0.00 0.00 54 1012.8
20260505174519 69 187 1.0 5.0 0.00 0.00 0.00 53 1012.9
20260505173016 68 345 2.0 7.0 0.00 0.00 0.00 56 1012.9
20260505171520 67 177 0.0 5.0 0.00 0.00 0.00 59 1012.8
20260505170015 66 196 1.0 4.0 0.00 0.00 0.00 58 1012.7
20260505164508 65 190 1.0 5.0 0.00 0.00 0.00 59 1012.7
20260505163007 65 265 1.0 5.0 0.00 0.00 0.00 62 1012.7
20260505161501 64 257 0.0 4.0 0.00 0.00 0.00 63 1012.6
20260505153053 62 178 2.0 3.0 0.00 0.00 0.00 70 1012.4
20260505151549 60 83 1.0 3.0 0.00 0.00 0.00 74 1012.5
20260505124538 55 360 0.0 0.0 0.00 0.00 0.00 81 1012.2
20260505123036 54 360 0.0 0.0 0.00 0.00 0.00 81 1012.0
20260505121531 54 360 0.0 0.0 0.00 0.00 0.00 81 1012.1
20260505120030 54 360 0.0 0.0 0.00 0.00 0.00 81 1012.1
20260505114529 54 360 0.0 0.0 0.00 0.00 0.00 80 1012.1
20260505113028 54 360 0.0 1.0 0.00 0.00 0.00 80 1012.1
20260505111535 53 360 0.0 0.0 0.00 0.00 0.00 80 1012.2
20260505101519 56 32 0.0 2.0 0.00 0.00 0.00 77 1012.2
20260505100018 57 355 0.0 1.0 0.00 0.00 0.00 77 1012.3
20260505094514 58 355 0.0 0.0 0.00 0.00 0.00 76 1012.3